Home   Weather   Hollywood   Past weeks

Flag for USA Past Weather in Hollywood, Florida, USA — Yesterday and Last 2 Weeks

Now
81 °F

Broken clouds.


Feels Like: 89 °F
Forecast: 76 / 82 °F
Wind: 8 mph from Southeast

Location: Fort Lauderdale / Hollywood International Airport

Current Time: Aug 30, 2016 at 1:15:37 PM

Latest Report: Aug 30, 2016 at 12:53 PM


Visibility: 10 mi

Pressure: 29.94 "Hg

Humidity: 94%

Dew Point: 79 °F

Location of HollywoodLocation

Past Weather in Hollywood — Graph

°F

Hollywood Temperature Yesterday

Maximum temperature yesterday: 87 °F (at 2:53 PM)
Minimum temperature yesterday: 76 °F (at 5:53 AM)
Average temperature yesterday: 81 °F

High & Low Weather Summary for the Past Weeks

 TemperatureHumidityPressure
High92 °F (Aug 21, 11:53 AM)97% (Aug 29, 5:53 AM)30.15 "Hg (Aug 29, 5:53 AM)
Low75 °F (Aug 30, 6:53 AM)52% (Aug 21, 11:53 AM)29.86 "Hg (Aug 27, 5:53 PM)
Average85 °F75%30.00 "Hg
* Reported Aug 15 11:53 AM — Aug 30 11:53 AM, Hollywood, Weather by CustomWeather, © 2016

Note: Actual official high and low records may vary slightly from our data, if they occured in-between our weather recording intervals... More about our weather records

Advertising

Hollywood Weather History for the Previous 24 Hours

Scroll right to see more
 ConditionsComfort  
Time TempWeatherWind HumidityBarometerVisibility
11:53 AM
Tue, Aug 30
78 °FLight rain. Cloudy.7 mph90%29.94 "Hg7 mi
11:04 AM83 °FBroken clouds.6 mph82%29.94 "Hg10 mi
10:53 AM83 °FMostly cloudy.7 mph82%29.94 "Hg10 mi
9:53 AM80 °FPartly sunny.6 mph90%29.94 "Hg10 mi
8:53 AM77 °FPartly sunny.No wind94%29.93 "Hg10 mi
7:53 AM75 °FPassing clouds.5 mph94%29.90 "Hg10 mi
6:53 AM75 °FPartly cloudy.7 mph94%29.88 "Hg10 mi
5:59 AM77 °FPassing clouds.3 mph96%29.88 "Hg7 mi
4:53 AM77 °FLight rain. Mostly cloudy.No wind96%29.88 "Hg9 mi
3:53 AM77 °FPassing clouds.5 mph96%29.88 "Hg10 mi
2:53 AM79 °FPartly cloudy.7 mph90%29.88 "Hg10 mi
1:53 AM80 °FPassing clouds.14 mph87%29.88 "Hg10 mi
1:03 AM77 °FLight rain. Passing clouds.3 mph90%29.91 "Hg9 mi
12:53 AM77 °FPassing clouds.No wind90%29.91 "Hg10 mi
11:53 PM
Mon, Aug 29
77 °FPassing clouds.6 mph90%29.92 "Hg10 mi
10:53 PM82 °FPartly cloudy.9 mph77%29.93 "Hg10 mi
9:53 PM82 °FPassing clouds.16 mph74%29.92 "Hg10 mi
8:53 PM82 °FPassing clouds.16 mph74%29.91 "Hg10 mi
7:53 PM82 °FPartly sunny.17 mph77%29.88 "Hg10 mi
6:53 PM82 °FPartly sunny.23 mph72%29.88 "Hg10 mi
5:53 PM84 °FPartly sunny.22 mph77%29.88 "Hg10 mi
4:53 PM86 °FPartly sunny.20 mph72%29.88 "Hg10 mi
3:53 PM85 °FBroken clouds.15 mph75%29.88 "Hg10 mi
2:53 PM87 °FPartly sunny.18 mph65%29.89 "Hg10 mi
1:53 PM85 °FPartly sunny.13 mph70%29.91 "Hg10 mi
Weather by CustomWeather, © 2016

See weather overviewHow to use our weather pages